WD6AWP Weather Reports


time (UTC)temp
C
wind
direction
speed
KPH
gust
KPH
rain 1hr
cm
rain 24hr
cm
rain mn
cm
humidity
%
barometer
mb
20260906000014 27 256 8.0 16.1 0.00 0.00 0.00 71 1011.6
20260905234512 26 304 11.3 19.3 0.00 0.00 0.00 70 1011.5
20260905233013 26 286 11.3 19.3 0.00 0.00 0.00 68 1011.7
20260905231514 27 242 11.3 19.3 0.00 0.00 0.00 66 1011.6
20260905230008 27 249 9.7 17.7 0.00 0.00 0.00 67 1011.7
20260905224507 27 280 11.3 19.3 0.00 0.00 0.00 66 1011.9
20260905223006 27 265 9.7 19.3 0.00 0.00 0.00 68 1012.1
20260905221503 27 304 12.9 20.9 0.00 0.00 0.00 69 1012.1
20260905220002 27 192 11.3 20.9 0.00 0.00 0.00 65 1012.2
20260905214600 26 261 9.7 22.5 0.00 0.00 0.00 67 1012.4
20260905213102 26 248 11.3 19.3 0.00 0.00 0.00 66 1012.6
20260905211557 27 257 12.9 20.9 0.00 0.00 0.00 65 1012.6
20260905210056 26 269 11.3 20.9 0.00 0.00 0.00 70 1012.7
20260905204555 26 269 8.0 20.9 0.00 0.00 0.00 71 1012.7
20260905203059 26 281 12.9 20.9 0.00 0.00 0.00 68 1012.9
20260905201553 27 256 9.7 20.9 0.00 0.00 0.00 69 1013.0
20260905200056 26 261 9.7 19.3 0.00 0.00 0.00 70 1013.2
20260905194552 27 274 11.3 19.3 0.00 0.00 0.00 70 1013.4
20260905193051 27 257 8.0 17.7 0.00 0.00 0.00 70 1013.6
20260905191550 27 227 6.4 16.1 0.00 0.00 0.00 70 1013.8
20260905190055 27 277 4.8 16.1 0.00 0.00 0.00 69 1014.0
20260905184556 27 227 4.8 16.1 0.00 0.00 0.00 69 1014.1
20260905183050 26 217 4.8 17.7 0.00 0.00 0.00 71 1014.2
20260905181542 26 302 4.8 12.9 0.00 0.00 0.00 71 1014.0
20260905180040 26 219 4.8 11.3 0.00 0.00 0.00 72 1014.1
20260905174539 25 279 3.2 14.5 0.00 0.00 0.00 74 1014.1
20260905173038 25 259 4.8 12.9 0.00 0.00 0.00 74 1014.1
20260905171538 25 278 1.6 11.3 0.00 0.00 0.00 75 1014.1
20260905170038 25 275 3.2 9.7 0.00 0.00 0.00 75 1014.2
20260905164537 25 285 1.6 9.7 0.00 0.00 0.00 77 1014.2
20260905163033 24 271 1.6 11.3 0.00 0.00 0.00 78 1014.1
20260905161531 25 280 1.6 6.4 0.00 0.00 0.00 77 1014.0
20260905160026 23 302 0.0 0.0 0.00 0.00 0.00 78 1014.0
20260905154522 23 300 0.0 0.0 0.00 0.00 0.00 81 1013.9
20260905153022 22 34 1.6 4.8 0.00 0.00 0.00 83 1013.6
20260905151512 21 29 0.0 0.0 0.00 0.00 0.00 88 1013.7
20260905150008 20 29 0.0 0.0 0.00 0.00 0.00 94 1013.6
20260905144506 18 30 0.0 0.0 0.00 0.00 0.00 96 1013.4
20260905143013 17 289 0.0 0.0 0.00 0.00 0.00 96 1013.3
20260905141503 16 289 0.0 0.0 0.00 0.00 0.00 95 1013.1
20260905140004 16 289 0.0 0.0 0.00 0.00 0.00 94 1013.0
20260905134505 16 289 0.0 0.0 0.00 0.00 0.00 94 1013.0
20260905133001 16 289 0.0 0.0 0.00 0.00 0.00 94 1012.8
20260905131610 16 289 0.0 0.0 0.00 0.00 0.00 94 1012.7
20260905130100 16 289 0.0 0.0 0.00 0.00 0.00 94 1012.6
20260905124558 16 289 0.0 0.0 0.00 0.00 0.00 94 1012.6
20260905123058 17 289 0.0 0.0 0.00 0.00 0.00 94 1012.5
20260905121554 17 289 0.0 0.0 0.00 0.00 0.00 94 1012.6
20260905120105 17 289 0.0 0.0 0.00 0.00 0.00 94 1012.6
20260905114554 17 289 0.0 0.0 0.00 0.00 0.00 94 1012.7
20260905113052 17 289 0.0 0.0 0.00 0.00 0.00 93 1012.6
20260905111606 17 289 0.0 0.0 0.00 0.00 0.00 94 1012.6
20260905110054 17 289 0.0 0.0 0.00 0.00 0.00 94 1012.8
20260905104547 17 289 0.0 0.0 0.00 0.00 0.00 94 1012.8
20260905103047 17 289 0.0 0.0 0.00 0.00 0.00 93 1012.8
20260905101548 17 289 0.0 0.0 0.00 0.00 0.00 93 1012.8
20260905100046 18 289 0.0 0.0 0.00 0.00 0.00 93 1012.9
20260905094544 18 289 0.0 0.0 0.00 0.00 0.00 93 1012.9
20260905093043 18 289 0.0 0.0 0.00 0.00 0.00 93 1012.8
20260905091541 18 289 0.0 0.0 0.00 0.00 0.00 92 1012.9
20260905090040 18 289 0.0 0.0 0.00 0.00 0.00 93 1013.0
20260905084539 18 289 0.0 0.0 0.00 0.00 0.00 92 1013.0
20260905083037 18 289 0.0 0.0 0.00 0.00 0.00 91 1013.0
20260905081535 18 289 0.0 0.0 0.00 0.00 0.00 92 1013.1
20260905080033 18 289 0.0 0.0 0.00 0.00 0.00 92 1013.2
20260905074532 18 289 0.0 0.0 0.00 0.00 0.00 91 1013.2
20260905073041 19 289 0.0 0.0 0.00 0.00 0.00 91 1013.2
20260905071539 19 289 0.0 0.0 0.00 0.00 0.00 91 1013.2
20260905070027 19 289 0.0 0.0 0.00 0.00 0.00 90 1013.2
20260905064527 19 289 0.0 0.0 0.00 0.00 0.00 89 1013.0
20260905063027 20 289 0.0 0.0 0.00 0.00 0.00 89 1013.0
20260905061529 20 289 0.0 0.0 0.00 0.00 0.00 87 1013.0
20260905060026 20 289 0.0 0.0 0.00 0.00 0.00 87 1013.0
20260905054539 20 289 0.0 0.0 0.00 0.00 0.00 86 1012.9
20260905053025 21 289 0.0 0.0 0.00 0.00 0.00 86 1012.9
20260905051525 21 289 0.0 0.0 0.00 0.00 0.00 86 1012.9
20260905050025 21 289 0.0 6.4 0.00 0.00 0.00 86 1012.9
20260905044523 21 289 4.8 11.3 0.00 0.00 0.00 86 1012.7
20260905043027 21 282 1.6 11.3 0.00 0.00 0.00 85 1012.7
20260905041522 21 283 6.4 14.5 0.00 0.00 0.00 85 1012.5
20260905040023 21 269 9.7 14.5 0.00 0.00 0.00 85 1012.3
20260905034521 22 264 9.7 12.9 0.00 0.00 0.00 85 1012.2
20260905033020 22 276 4.8 16.1 0.00 0.00 0.00 86 1012.0
20260905031520 22 246 8.0 14.5 0.00 0.00 0.00 85 1011.9
20260905030019 22 263 9.7 16.1 0.00 0.00 0.00 85 1011.7
20260905024518 22 283 6.4 16.1 0.00 0.00 0.00 84 1011.6
20260905023020 22 277 6.4 12.9 0.00 0.00 0.00 84 1011.6
20260905021516 22 231 3.2 9.7 0.00 0.00 0.00 83 1011.7
20260905020015 22 222 1.6 12.9 0.00 0.00 0.00 81 1011.9
20260905014513 22 265 0.0 9.7 0.00 0.00 0.00 79 1011.9
20260905013013 23 259 4.8 12.9 0.00 0.00 0.00 78 1011.9
20260905011511 24 244 4.8 14.5 0.00 0.00 0.00 74 1011.9
20260905010012 24 272 4.8 12.9 0.00 0.00 0.00 73 1012.1
20260905004510 25 260 8.0 14.5 0.00 0.00 0.00 71 1012.1
20260905003009 25 275 6.4 12.9 0.00 0.00 0.00 71 1012.2
20260905001509 25 256 4.8 11.3 0.00 0.00 0.00 70 1012.2